CW6205 Weather Reports


time (UTC)temp
F
wind
direction
speed
knots
gust
knots
rain 1hr
in
rain 24hr
in
rain mn
in
humidity
%
barometer
mb
20260510061016 64 203 2.6 7.0 0.00 0.01 0.00 76 1016.2
20260510060516 64 203 2.6 4.3 0.00 0.01 0.00 76 1016.4
20260510060016 64 203 2.6 6.1 0.00 0.01 0.00 76 1016.4
20260510055516 65 203 2.6 4.3 0.00 0.01 0.00 76 1016.4
20260510055016 65 203 2.6 7.0 0.00 0.01 0.00 76 1016.3
20260510054516 65 180 2.6 5.2 0.00 0.01 0.00 75 1016.4
20260510054016 65 203 2.6 6.1 0.00 0.01 0.00 75 1016.5
20260510053016 65 203 2.6 7.0 0.00 0.01 0.00 75 1016.6
20260510052516 65 203 2.6 8.7 0.00 0.01 0.00 75 1016.5
20260510052016 65 203 3.5 7.0 0.00 0.01 0.00 74 1016.5
20260510051515 65 203 2.6 5.2 0.00 0.01 0.00 74 1016.5
20260510051017 65 203 2.6 5.2 0.00 0.01 0.00 74 1016.2
20260510050536 65 203 2.6 7.8 0.00 0.01 0.00 74 1016.2
20260510050016 65 203 2.6 4.3 0.00 0.01 0.01 73 1016.2
20260510045556 65 203 2.6 6.1 0.00 0.01 0.01 73 1016.1
20260510045116 65 203 3.5 6.1 0.00 0.01 0.01 73 1016.1
20260510044516 65 203 3.5 7.8 0.00 0.01 0.01 73 1016.1
20260510044036 65 203 3.5 6.1 0.00 0.01 0.01 73 1016.0
20260510043515 65 180 3.5 7.8 0.00 0.01 0.01 73 1015.9
20260510043056 65 203 2.6 7.0 0.00 0.01 0.01 73 1015.9
20260510042516 66 203 3.5 8.7 0.00 0.01 0.01 72 1015.7
20260510042036 66 203 2.6 4.3 0.00 0.01 0.01 71 1015.8
20260510041536 66 203 2.6 7.0 0.00 0.01 0.01 71 1015.8
20260510041016 66 203 2.6 4.3 0.00 0.01 0.01 70 1015.7
20260510040516 66 203 2.6 6.1 0.00 0.01 0.01 69 1015.8
20260510040036 66 203 2.6 5.2 0.00 0.01 0.01 68 1015.5
20260510035516 66 180 1.7 4.3 0.00 0.01 0.01 67 1015.5
20260510035056 66 203 2.6 5.2 0.00 0.01 0.01 67 1015.5
20260510034516 67 203 1.7 5.2 0.00 0.01 0.01 66 1015.3
20260510034016 67 203 2.6 8.7 0.00 0.01 0.01 66 1015.2
20260510033518 67 203 2.6 5.2 0.00 0.01 0.01 65 1015.2
20260510033018 67 203 1.7 5.2 0.00 0.01 0.01 65 1015.0
20260510032518 67 203 1.7 4.3 0.00 0.01 0.01 64 1015.1
20260510032018 67 203 1.7 5.2 0.00 0.01 0.01 64 1014.9
20260510031517 67 203 1.7 6.1 0.00 0.01 0.01 65 1014.9
20260510031058 67 180 1.7 4.3 0.00 0.01 0.01 64 1014.9
20260510030523 67 203 1.7 4.3 0.00 0.01 0.01 64 1014.8
20260510030018 67 203 1.7 4.3 0.00 0.01 0.01 64 1014.6
20260510025518 67 203 1.7 4.3 0.00 0.01 0.01 64 1014.5
20260510025038 67 203 1.7 6.1 0.00 0.01 0.01 63 1014.5
20260510024518 67 180 1.7 4.3 0.00 0.02 0.01 62 1014.5
20260510024017 67 180 1.7 3.5 0.00 0.02 0.01 60 1014.4
20260510023518 67 203 1.7 2.6 0.00 0.02 0.01 58 1014.2
20260510023018 67 180 1.7 2.6 0.00 0.02 0.01 57 1014.2
20260510022518 68 180 1.7 3.5 0.00 0.02 0.01 56 1013.9
20260510022018 67 203 1.7 4.3 0.00 0.02 0.01 55 1013.9
20260510021538 67 180 0.9 2.6 0.00 0.02 0.01 54 1013.5
20260510021018 67 180 1.7 3.5 0.00 0.02 0.01 53 1013.5
20260510020518 67 180 1.7 4.3 0.00 0.02 0.01 53 1013.5
20260510020017 67 203 0.9 2.6 0.00 0.02 0.01 53 1013.4
20260510015517 67 248 0.9 1.7 0.00 0.02 0.01 53 1013.4
20260510015018 67 225 0.9 1.7 0.01 0.02 0.01 53 1013.3
20260510014517 67 0.0 1.7 0.01 0.02 0.01 53 1013.2
20260510014018 67 0.0 1.7 0.01 0.02 0.01 53 1013.2
20260510013517 67 0.0 1.7 0.01 0.02 0.01 53 1013.1
20260510013018 68 0.0 0.9 0.01 0.02 0.01 53 1013.1
20260510012517 68 0.0 0.9 0.01 0.02 0.01 52 1013.2
20260510012017 68 0.0 0.0 0.01 0.02 0.01 51 1013.0
20260510011517 68 0.0 0.9 0.01 0.02 0.01 50 1013.1
20260510011038 69 0.0 0.9 0.01 0.02 0.01 49 1013.1
20260510010517 69 0.0 0.9 0.01 0.02 0.01 48 1012.9
20260510010018 69 0.0 1.7 0.01 0.02 0.01 49 1012.8
20260510005517 70 0.0 0.9 0.01 0.02 0.01 49 1012.8
20260510005017 70 0.0 0.9 0.00 0.01 0.00 49 1012.8
20260510004517 70 0.0 0.9 0.00 0.01 0.00 49 1012.8
20260510004017 70 0.0 0.9 0.00 0.01 0.00 47 1012.8
20260510003517 71 0.0 0.0 0.00 0.01 0.00 46 1012.8
20260510003017 71 0.0 0.0 0.00 0.01 0.00 49 1013.0
20260510002517 71 0.0 0.0 0.00 0.01 0.00 47 1013.0
20260510002017 72 0.0 0.0 0.00 0.01 0.00 48 1013.0
20260510001517 72 0.0 0.0 0.00 0.01 0.00 47 1012.9
20260510001017 72 0.0 0.0 0.00 0.01 0.00 47 1012.9
20260510000517 72 0.0 0.9 0.00 0.01 0.00 48 1012.8
20260510000017 73 0.0 0.0 0.00 0.01 0.00 50 1012.8
20260509235517 73 0.0 0.0 0.00 0.01 0.00 49 1013.0
20260509235017 73 0.0 0.9 0.00 0.01 0.00 48 1013.0
20260509234517 73 0.0 0.0 0.00 0.01 0.00 48 1013.0
20260509234017 74 0.0 0.0 0.00 0.01 0.00 46 1013.0
20260509233517 74 0.0 0.9 0.00 0.01 0.00 46 1013.0
20260509233017 74 0.0 0.9 0.00 0.01 0.00 48 1013.1
20260509232517 74 0.0 0.9 0.00 0.01 0.00 50 1013.1
20260509232037 74 0.0 1.7 0.00 0.01 0.00 45 1013.1
20260509231517 75 0.0 0.0 0.00 0.01 0.00 46 1013.2
20260509231037 75 0.0 0.9 0.00 0.01 0.00 46 1013.3
20260509230517 75 0.0 0.9 0.00 0.01 0.00 45 1013.3
20260509230017 75 0.0 0.0 0.00 0.01 0.00 46 1013.3
20260509225517 75 0.0 0.9 0.00 0.01 0.00 45 1013.3
20260509225017 75 0.0 0.9 0.00 0.01 0.00 46 1013.2
20260509224517 76 0.0 0.9 0.00 0.01 0.00 44 1013.2
20260509224017 76 0.0 0.9 0.00 0.01 0.00 42 1013.1
20260509223517 76 0.0 0.9 0.00 0.01 0.00 42 1013.1
20260509223018 76 0.0 0.9 0.00 0.01 0.00 46 1013.1
20260509222517 76 0.0 0.9 0.00 0.01 0.00 43 1013.1
20260509222037 76 0.0 0.9 0.00 0.01 0.00 43 1013.0
20260509221517 76 0.0 1.7 0.00 0.01 0.00 43 1013.1
20260509221018 76 0.0 0.9 0.00 0.01 0.00 42 1013.1
20260509220537 76 0.0 1.7 0.00 0.01 0.00 42 1013.2
20260509220017 76 0.0 1.7 0.00 0.01 0.00 40 1013.1
20260509215517 76 0.0 1.7 0.00 0.01 0.00 40 1013.1
20260509215017 77 203 0.9 4.3 0.00 0.01 0.00 38 1013.2
20260509214517 77 158 0.9 1.7 0.00 0.01 0.00 40 1013.3
20260509214017 77 338 0.9 0.9 0.00 0.01 0.00 41 1013.1
20260509213517 77 0.0 1.7 0.00 0.01 0.00 43 1013.2
20260509213017 77 203 0.9 3.5 0.00 0.01 0.00 37 1013.1
20260509212517 77 0.0 0.9 0.00 0.01 0.00 42 1013.2
20260509212017 77 0.0 0.9 0.00 0.01 0.00 41 1013.2
20260509211517 77 0.0 0.9 0.00 0.01 0.00 46 1013.3
20260509211017 77 0.0 0.9 0.00 0.01 0.00 40 1013.2
20260509210517 78 248 0.9 1.7 0.00 0.01 0.00 40 1013.2
20260509210020 78 0.0 1.7 0.00 0.01 0.00 43 1013.4
20260509205517 78 0 0.9 2.6 0.00 0.01 0.00 42 1013.4
20260509205017 79 0 0.9 2.6 0.00 0.01 0.00 37 1013.4
20260509204517 79 293 0.9 1.7 0.00 0.01 0.00 38 1013.4
20260509204017 79 270 0.9 2.6 0.00 0.01 0.00 40 1013.6
20260509203519 79 203 0.9 4.3 0.00 0.01 0.00 38 1013.5
20260509203018 78 0.0 0.9 0.00 0.01 0.00 46 1013.5
20260509202517 78 23 0.9 1.7 0.00 0.01 0.00 44 1013.5
20260509202037 78 225 0.9 2.6 0.00 0.01 0.00 44 1013.7
20260509201521 78 203 0.9 2.6 0.00 0.01 0.00 40 1013.6
20260509201017 78 225 0.9 2.6 0.00 0.01 0.00 40 1013.7
20260509200517 78 248 0.9 3.5 0.00 0.01 0.00 42 1013.8
20260509200037 78 225 1.7 4.3 0.00 0.01 0.00 40 1013.9
20260509195517 78 338 0.9 1.7 0.00 0.01 0.00 41 1014.0
20260509195017 78 0.0 0.9 0.00 0.01 0.00 38 1014.0
20260509194517 78 203 0.9 1.7 0.00 0.01 0.00 38 1014.0
20260509194017 78 338 0.9 1.7 0.00 0.01 0.00 39 1014.1
20260509193517 78 45 0.9 3.5 0.00 0.01 0.00 39 1014.1
20260509193017 78 23 0.9 1.7 0.00 0.01 0.00 43 1014.2
20260509192517 77 0.0 1.7 0.00 0.01 0.00 43 1014.1
20260509192018 77 248 0.9 2.6 0.00 0.01 0.00 40 1014.2
20260509191537 77 225 0.9 1.7 0.00 0.01 0.00 42 1014.2
20260509191017 78 203 0.9 4.3 0.00 0.01 0.00 36 1014.0
20260509190517 77 0.0 0.9 0.00 0.01 0.00 41 1014.2
20260509190017 77 0.0 1.7 0.00 0.01 0.00 42 1014.6
20260509185517 77 23 0.9 1.7 0.00 0.01 0.00 42 1014.3
20260509185017 77 315 0.9 1.7 0.00 0.01 0.00 41 1014.2
20260509184517 77 270 0.9 2.6 0.00 0.01 0.00 39 1014.3
20260509184017 77 0 0.9 2.6 0.00 0.01 0.00 42 1014.3
20260509183537 77 248 0.9 2.6 0.00 0.01 0.00 38 1014.3
20260509183037 77 180 0.9 1.7 0.00 0.01 0.00 43 1014.3
20260509182517 77 135 0.9 1.7 0.00 0.01 0.00 36 1014.3
20260509182017 76 0.0 1.7 0.00 0.01 0.00 39 1014.4
20260509181537 76 225 0.9 2.6 0.00 0.01 0.00 41 1014.4
20260509181017 76 180 0.9 2.6 0.00 0.01 0.00 36 1014.4
20260509180517 76 0.0 1.7 0.00 0.01 0.00 37 1014.5
20260509180017 76 0.0 1.7 0.00 0.01 0.00 40 1014.6
20260509175517 75 248 0.9 3.5 0.00 0.01 0.00 41 1014.3
20260509175017 75 248 0.9 3.5 0.00 0.01 0.00 43 1014.3
20260509174517 74 293 0.9 2.6 0.00 0.01 0.00 43 1014.2
20260509174017 74 225 0.9 2.6 0.00 0.01 0.00 39 1014.2
20260509173517 75 270 0.9 3.5 0.00 0.01 0.00 42 1014.4
20260509173038 75 293 0.9 3.5 0.00 0.01 0.00 39 1014.4
20260509172537 75 203 0.9 1.7 0.00 0.01 0.00 44 1014.5
20260509172017 75 225 0.9 2.6 0.00 0.01 0.00 43 1014.6
20260509171517 76 0.0 1.7 0.00 0.01 0.00 47 1014.7
20260509171037 76 0.0 1.7 0.00 0.01 0.00 51 1014.6
20260509170517 75 203 0.9 1.7 0.00 0.01 0.00 50 1014.6
20260509170017 75 0.0 1.7 0.00 0.01 0.00 49 1014.6
20260509165517 74 0.0 2.6 0.00 0.01 0.00 45 1014.6
20260509165017 74 0.0 1.7 0.00 0.01 0.00 53 1014.6
20260509164517 74 338 0.9 1.7 0.00 0.01 0.00 48 1014.5
20260509164017 74 0.0 1.7 0.00 0.01 0.00 49 1014.5
20260509163517 73 23 0.9 1.7 0.00 0.01 0.00 49 1014.5
20260509163017 73 0.0 1.7 0.00 0.01 0.00 52 1014.5
20260509162517 72 0.0 1.7 0.00 0.01 0.00 53 1014.4
20260509162037 72 0.0 1.7 0.00 0.01 0.00 54 1014.4
20260509161557 71 0.0 0.9 0.00 0.01 0.00 57 1014.2
20260509161016 71 338 0.9 1.7 0.00 0.01 0.00 60 1014.2
20260509160517 70 338 0.9 2.6 0.00 0.01 0.00 55 1014.2
20260509160017 69 0.0 1.7 0.00 0.01 0.00 55 1014.0
20260509155537 69 0.0 1.7 0.00 0.01 0.00 57 1014.0
20260509155057 68 0.0 0.9 0.00 0.01 0.00 64 1014.1
20260509154516 68 0.0 0.9 0.00 0.01 0.00 65 1014.0
20260509154017 67 0.0 0.0 0.00 0.01 0.00 67 1013.9
20260509153517 67 0.0 0.9 0.00 0.01 0.00 66 1013.9
20260509153016 66 0.0 2.6 0.00 0.01 0.00 64 1013.7
20260509152517 66 0.0 0.9 0.00 0.01 0.00 66 1013.7
20260509152017 66 0.0 0.9 0.00 0.01 0.00 72 1013.8
20260509151516 65 0.0 0.0 0.00 0.01 0.00 75 1013.6
20260509151037 65 0.0 0.9 0.00 0.01 0.00 72 1013.5
20260509150516 65 0.0 1.7 0.00 0.01 0.00 74 1013.6
20260509150017 64 0.0 2.6 0.00 0.01 0.00 75 1013.5
20260509145516 64 158 0.9 2.6 0.00 0.01 0.00 76 1013.6
20260509145017 64 0.0 1.7 0.00 0.01 0.00 77 1013.5
20260509144516 64 0.0 0.9 0.00 0.01 0.00 80 1013.7
20260509144017 64 0.0 0.9 0.00 0.01 0.00 80 1013.8
20260509143557 63 0.0 0.9 0.00 0.01 0.00 82 1013.8
20260509143016 63 0.0 0.9 0.00 0.01 0.00 83 1013.8
20260509142516 63 0.0 0.9 0.00 0.01 0.00 83 1013.8
20260509142016 63 203 0.9 3.5 0.00 0.01 0.00 83 1013.8
20260509141516 63 180 0.9 4.3 0.00 0.01 0.00 82 1013.7
20260509141017 62 203 0.9 1.7 0.00 0.01 0.00 82 1013.7
20260509140537 62 0.0 1.7 0.00 0.01 0.00 82 1013.7
20260509140016 62 0.0 0.9 0.00 0.01 0.00 83 1013.4
20260509135516 61 0.0 2.6 0.00 0.01 0.00 84 1013.4
20260509135016 61 0.0 1.7 0.00 0.01 0.00 85 1013.3
20260509134516 61 0.0 1.7 0.00 0.01 0.00 85 1013.3
20260509134016 61 0.0 1.7 0.00 0.01 0.00 85 1013.4
20260509133517 61 0.0 1.7 0.00 0.01 0.00 85 1013.3
20260509133016 61 0.0 1.7 0.00 0.01 0.00 83 1013.3
20260509132516 60 0.0 1.7 0.00 0.01 0.00 82 1012.9
20260509132016 60 0.0 1.7 0.00 0.01 0.00 83 1012.8
20260509131517 60 0.0 1.7 0.00 0.01 0.00 83 1012.7
20260509131016 60 0.0 0.9 0.00 0.01 0.00 84 1012.8
20260509130516 60 0.0 0.9 0.00 0.01 0.00 84 1012.8
20260509130016 59 0.0 0.9 0.00 0.01 0.00 85 1012.8
20260509125516 59 0.0 0.9 0.00 0.01 0.00 85 1012.7
20260509125036 59 0.0 0.9 0.00 0.01 0.00 86 1012.7
20260509124516 59 0.0 1.7 0.00 0.01 0.00 85 1012.6
20260509124016 59 0.0 1.7 0.00 0.01 0.00 86 1012.8
20260509123516 59 0.0 1.7 0.00 0.01 0.00 86 1012.6
20260509123016 59 0.0 2.6 0.00 0.01 0.00 86 1012.5
20260509122516 59 0.0 1.7 0.00 0.01 0.00 86 1012.5
20260509122036 59 248 0.9 2.6 0.00 0.01 0.00 87 1012.6
20260509121516 59 0.0 1.7 0.00 0.01 0.00 86 1012.5
20260509121016 59 270 0.9 3.5 0.00 0.01 0.00 87 1012.4
20260509120516 59 293 0.9 4.3 0.00 0.01 0.00 87 1012.4
20260509120016 59 0.0 3.5 0.00 0.01 0.00 88 1012.4
20260509115556 59 270 0.9 1.7 0.00 0.01 0.00 88 1012.3
20260509115016 59 0.0 0.9 0.00 0.01 0.00 88 1012.4
20260509114516 59 0.0 1.7 0.00 0.01 0.00 87 1012.4
20260509114016 59 270 0.9 3.5 0.00 0.01 0.00 87 1012.4
20260509113516 59 270 0.9 1.7 0.00 0.01 0.00 87 1012.3
20260509113016 59 270 0.9 3.5 0.00 0.01 0.00 87 1012.2
20260509112516 59 293 0.9 2.6 0.00 0.01 0.00 87 1012.2
20260509112016 59 270 0.9 7.0 0.00 0.01 0.00 87 1012.2
20260509111516 60 270 0.9 2.6 0.00 0.01 0.00 87 1012.1
20260509111016 59 315 0.9 3.5 0.00 0.01 0.00 87 1012.0
20260509110516 59 293 1.7 6.1 0.00 0.01 0.00 87 1012.1
20260509110016 59 315 0.9 2.6 0.00 0.01 0.00 88 1012.0
20260509105556 59 270 0.9 2.6 0.00 0.01 0.00 88 1012.0
20260509105036 59 0.0 1.7 0.00 0.01 0.00 88 1012.0
20260509104516 59 0.0 1.7 0.00 0.01 0.00 88 1012.1
20260509104016 59 293 0.9 3.5 0.00 0.01 0.00 87 1012.0
20260509103516 59 270 0.9 3.5 0.00 0.01 0.00 87 1012.1
20260509103016 59 248 1.7 10.4 0.00 0.01 0.00 88 1012.1
20260509102516 59 203 0.9 3.5 0.00 0.01 0.00 88 1012.0
20260509102016 59 248 0.9 5.2 0.00 0.01 0.00 87 1012.1
20260509101516 59 248 0.9 3.5 0.00 0.01 0.00 87 1012.1
20260509101016 59 248 1.7 4.3 0.00 0.01 0.00 87 1012.0
20260509100516 59 203 1.7 4.3 0.00 0.01 0.00 88 1012.2
20260509100016 59 270 1.7 5.2 0.00 0.01 0.00 88 1012.2
20260509095516 59 270 0.9 4.3 0.00 0.01 0.00 88 1012.2
20260509095016 59 315 1.7 4.3 0.00 0.01 0.00 88 1012.1
20260509094516 59 248 2.6 7.0 0.00 0.01 0.00 88 1012.2
20260509094016 58 158 3.5 9.6 0.00 0.01 0.00 89 1012.1
20260509093536 58 338 0.9 3.5 0.00 0.01 0.00 89 1012.1
20260509093016 58 158 1.7 7.0 0.00 0.01 0.00 89 1012.1
20260509092536 58 180 1.7 7.0 0.00 0.01 0.00 90 1012.3
20260509092016 58 180 1.7 6.1 0.00 0.01 0.00 90 1012.3
20260509091516 57 225 0.9 4.3 0.00 0.01 0.00 90 1012.3
20260509091016 57 248 0.9 3.5 0.00 0.01 0.00 90 1012.4
20260509090516 57 225 0.9 3.5 0.00 0.01 0.00 90 1012.3
20260509090016 57 225 1.7 5.2 0.00 0.01 0.00 90 1012.4
20260509085516 57 248 0.9 3.5 0.00 0.01 0.00 90 1012.3
20260509085016 57 270 1.7 7.8 0.00 0.01 0.00 90 1012.3
20260509084516 57 248 0.9 4.3 0.00 0.01 0.00 90 1012.3
20260509084016 57 248 1.7 7.0 0.00 0.01 0.00 90 1012.3
20260509083516 57 248 0.9 3.5 0.00 0.01 0.00 90 1012.5
20260509083016 57 248 1.7 4.3 0.00 0.01 0.00 90 1012.4
20260509082516 57 225 1.7 7.0 0.00 0.01 0.00 90 1012.4
20260509082016 57 225 0.9 2.6 0.00 0.01 0.00 90 1012.4
20260509081537 57 248 0.9 7.8 0.00 0.01 0.00 90 1012.4
20260509081016 57 225 1.7 7.0 0.00 0.01 0.00 90 1012.4
20260509080516 56 203 1.7 6.1 0.00 0.01 0.00 90 1012.4
20260509080016 56 203 2.6 7.8 0.00 0.01 0.00 90 1012.5
20260509075516 56 248 0.9 5.2 0.00 0.01 0.00 90 1012.3
20260509075036 56 248 2.6 6.1 0.00 0.01 0.00 90 1012.3
20260509074536 56 248 0.9 5.2 0.00 0.01 0.00 90 1012.3
20260509074016 56 248 0.9 5.2 0.00 0.01 0.00 90 1012.3
20260509073516 57 248 0.9 4.3 0.00 0.01 0.00 89 1012.4
20260509073016 57 0.0 1.7 0.00 0.01 0.00 89 1012.5
20260509072556 57 113 0.9 4.3 0.00 0.01 0.00 88 1012.5
20260509072016 57 158 0.9 6.1 0.00 0.01 0.00 88 1012.2
20260509071536 57 203 0.9 3.5 0.00 0.01 0.00 88 1012.3
20260509071036 57 248 0.9 4.3 0.00 0.01 0.00 88 1012.3
20260509070516 57 225 1.7 7.8 0.00 0.01 0.00 88 1012.3
20260509070016 57 315 0.9 6.1 0.00 0.01 0.00 88 1012.2
20260509065516 57 225 1.7 5.2 0.00 0.01 0.00 88 1012.2
20260509065016 57 225 0.9 4.3 0.00 0.01 0.00 88 1012.3
20260509064515 57 338 0.9 3.5 0.00 0.01 0.00 88 1012.3
20260509064015 57 248 0.9 4.3 0.00 0.01 0.00 88 1012.3
20260509063515 57 248 0.9 3.5 0.00 0.01 0.00 88 1012.2
20260509063015 58 225 0.9 3.5 0.00 0.01 0.00 87 1012.3
20260509062516 58 203 0.9 3.5 0.00 0.01 0.00 86 1012.2
20260509062016 59 248 0.9 2.6 0.00 0.01 0.00 85 1012.4
20260509061516 59 248 2.6 7.8 0.00 0.01 0.00 84 1012.4